Overview Statistics Trail Chart Weather Telemetry Raw packets
 

This is the latest recevied weather packets stored in our database for station/object 4S6DRJ-13. If no packets are shown the sender has not sent any weather packets the latest 10 day(s).

<< 522 523 524 525 526 527 528 >>
Time Temp. Humidity Pressure Rain* Wind** Luminosity Snow
1787649181 30° C 75% 1008.6 hPa 0 mm 2.68 m/s, 201° 747 W/m² -
1787649120 30° C 74% 1008.6 hPa 0 mm 1.79 m/s, 261° 761 W/m² -
1787649059 30° C 74% 1008.8 hPa 0 mm 2.68 m/s, 288° 966 W/m² -
1787648998 30° C 74% 1008.7 hPa 0 mm 2.24 m/s, 351° 988 W/m² -
1787648937 30° C 75% 1008.6 hPa 0 mm 3.13 m/s, 302° 822 W/m² -
1787648877 30° C 75% 1008.6 hPa 0 mm 3.13 m/s, 263° 768 W/m² -
1787648815 30° C 75% 1008.6 hPa 0 mm 2.24 m/s, 315° 745 W/m² -
1787648754 29.44° C 75% 1008.9 hPa 0 mm 2.68 m/s, 290° 839 W/m² -
1787648693 29.44° C 76% 1008.8 hPa 0 mm 3.13 m/s, 269° 845 W/m² -
1787648632 29.44° C 75% 1008.7 hPa 0 mm 2.24 m/s, 339° 875 W/m² -
1787648571 30° C 75% 1008.8 hPa 0 mm 3.13 m/s, 293° 697 W/m² -
1787648510 30° C 74% 1008.8 hPa 0 mm 2.68 m/s, 190° 792 W/m² -
1787648449 30° C 75% 1008.7 hPa 0 mm 2.24 m/s, 228° 645 W/m² -
1787648388 30° C 76% 1008.9 hPa 0 mm 1.79 m/s, 254° 564 W/m² -
1787648327 30° C 76% 1008.6 hPa 0 mm 2.24 m/s, 284° 489 W/m² -
1787648266 30° C 75% 1008.8 hPa 0 mm 2.68 m/s, 148° 460 W/m² -
1787648205 30° C 75% 1008.8 hPa 0 mm 2.24 m/s, 245° 463 W/m² -
1787648144 30° C 75% 1008.8 hPa 0 mm 1.79 m/s, 351° 648 W/m² -
1787648083 30° C 75% 1008.7 hPa 0 mm 3.13 m/s, 242° 621 W/m² -
1787648022 30° C 75% 1008.6 hPa 0 mm 1.79 m/s, 290° 615 W/m² -
1787647961 29.44° C 76% 1008.7 hPa 0 mm 2.24 m/s, 270° 795 W/m² -
1787647900 29.44° C 77% 1008.7 hPa 0 mm 2.24 m/s, 261° 994 W/m² -
1787647840 29.44° C 77% 1008.8 hPa 0 mm 3.13 m/s, 296° 1114 W/m² -
1787647778 29.44° C 77% 1008.8 hPa 0 mm 3.13 m/s, 222° 1122 W/m² -
1787647717 29.44° C 78% 1008.7 hPa 0 mm 2.24 m/s, 329° 543 W/m² -

* Rain latest hour (hover to see other rain measurements)
** Current wind speed in m/s (hover to see current wind gust speed)